Regional Weather Roundup
Issued by NWS Little Rock, AR

Home | Current Version | Previous Version | Graphics & Text | Print | Product List | Glossary On
Versions: 1 2 3 4 5 6 7 8 9 10 11 12 13 14 15 16 17 18 19 20 21 22 23 24 25 26 27 28 29 30 31 32 33 34 35 36 37 38 39 40 41 42 43 44 45 46 47 48 49 50
000
ASUS44 KLZK 151505
RWRLZK

WEATHER ROUNDUP FOR ARKANSAS
NATIONAL WEATHER SERVICE LITTLE ROCK AR
900 AM CST MON JAN 15 2018

NOTE: "FAIR" INDICATES FEW OR NO CLOUDS BELOW 12,000 FEET WITH NO
SIGNIFICANT WEATHER AND/OR OBSTRUCTIONS TO VISIBILITY.

ARZ001-003-010-029-151600-
NORTHWEST ARKANSAS

CITY           SKY/WX    TMP DP  RH WIND       PRES   REMARKS
FAYETTEVILLE   CLOUDY    35  24  64 N8        30.33R WCI  29
FORT SMITH     CLOUDY    30  23  75 CALM      30.36R
HARRISON       CLOUDY    33  29  85 NW8       30.32R WCI  26
BENTONVILLE    CLOUDY    32  29  88 N9        30.36R WCI  24
ROGERS         FLURRIES  32  29  88 N7        30.35R WCI  26
SILOAM SPGS    CLOUDY    34  29  82 N14       30.36R WCI  25
HIGHFILL       CLOUDY    33  29  85 N13       30.34R WCI  24
SPRINGDALE     CLOUDY    34  28  80 N9        30.35R WCI  26
$$

ARZ004-005-016-151600-
NORTH CENTRAL ARKANSAS

CITY           SKY/WX    TMP DP  RH WIND       PRES   REMARKS
BATESVILLE     CLOUDY    33  21  61 W3        30.37R
FLIPPIN        CLOUDY    29  26  89 W3        30.36R
MTN HOME       CLOUDY    28  25  88 CALM      30.33R
$$

ARZ040-041-151600-
WEST CENTRAL ARKANSAS

CITY           SKY/WX    TMP DP  RH WIND       PRES   REMARKS
MENA           CLOUDY    37  27  65 W8        30.34R
MOUNT IDA      SUNNY     29  22  75 CALM      30.31
$$

ARZ009-017-025-026-028-151600-
NORTHEAST ARKANSAS

CITY           SKY/WX    TMP DP  RH WIND       PRES   REMARKS
JONESBORO      FAIR      31  24  75 SW12      30.37R WCI  22
NEWPORT        FAIR      30  25  81 SW7       30.39R WCI  23
WALNUT RIDGE   FAIR      30  24  78 SW7       30.37R WCI  23
BLYTHEVILLE    CLOUDY    31  28  89 SW10      30.36S WCI  22
$$

ARZ022-023-033-042-044-151600-
CENTRAL ARKANSAS

CITY           SKY/WX    TMP DP  RH WIND       PRES   REMARKS
LITTLE ROCK    PTSUNNY   31  23  72 W5        30.38R WCI  26
N LITTLE ROCK    N/A     32  24  70 CALM      30.41R
JACKSONVILLE   PTSUNNY   32  22  68 CALM      30.37R
SEARCY         CLOUDY    30  26  85 MISG        N/A
HOT SPRINGS    SUNNY     33  23  66 CALM      30.35S
RUSSELLVILLE   CLOUDY    30  22  72 NW3       30.36R
CLINTON        FAIR      27  23  86 CALM      30.36R
$$

ARZ036-151600-
EAST ARKANSAS

CITY           SKY/WX    TMP DP  RH WIND       PRES   REMARKS
WEST MEMPHIS   FAIR      31  27  85 S9        30.39R WCI  23
$$

ARZ050-053-066-070-073-151600-
SOUTHWEST ARKANSAS

CITY           SKY/WX    TMP DP  RH WIND       PRES   REMARKS
ARKADELPHIA    FAIR      31  27  85 S3        30.40R
CAMDEN         FAIR      30  23  74 CALM      30.40R
TEXARKANA      MOSUNNY   36  28  73 S8        30.36R
EL DORADO      FAIR      32  28  85 S3        30.40R
DE QUEEN       CLOUDY    30  25  81 E5        30.35R WCI  25
$$

ARZ056-057-069-151600-
SOUTHEAST ARKANSAS

CITY           SKY/WX    TMP DP  RH WIND       PRES   REMARKS
PINE BLUFF     FAIR      34  25  69 SW9       30.40R WCI  27
STUTTGART      FAIR      35  26  69 SW9       30.40R WCI  28
MONTICELLO     FAIR      37  22  54 SW9       30.41R

$$





USA.gov is the U.S. government's official web portal to all federal, state and local government web resources and services.